Location: Carbonear
(47.7333°N, 53.2500°W)
Time: 10:25:23
(UTC+00:00)

XW-2F - Pass Details

Date: 07 December 2022
Orbit: 473 x 485 km, 97.5° (Epoch: 28 January)

Event Time Altitude Azimuth Distance (km) Brightness Sun altitude
Rises 20:31:07 0° 147° (SSE) 2,525 ? -8.1°
Reaches altitude 10° 20:33:15 10° 139° (SE) 1,648 ? -8.5°
Maximum altitude 20:36:32 37° 71° (ENE) 759 ? -9.0°
Drops below altitude 10° 20:39:50 10° 3° (N) 1,653 ? -9.5°
Sets 20:41:59 0° 355° (N) 2,535 ? -9.8°
